Location: Hemaruka
(51.7801°N, 111.0917°W)
Time: 09:11:09
(UTC+00:00)

NOAA 15 - Pass Details

Date: 14 December 2023
Orbit: 797 x 810 km, 98.6° (Epoch: 02 March)

Event Time Altitude Azimuth Distance (km) Brightness Sun altitude
Rises 00:29:27 0° 118° (ESE) 3,318 7.4 -10.8°
Reaches altitude 10° 00:32:15 10° 104° (ESE) 2,388 6.6 -11.2°
Maximum altitude 00:36:10 22° 56° (NE) 1,716 5.7 -11.8°
Drops below altitude 10° 00:40:05 10° 7° (N) 2,393 6.8 -12.4°
Sets 00:42:54 0° 353° (N) 3,325 7.7 -12.8°
